Find Starlink 2330

NORAD ID: 47874 Int'l Des: 2021-021 Owner: SPXS Country: US Constellation: starlink operational
LEOCIRCULARSTARLINK_TYPE

实时位置

正在加载3D地球...

关于 Starlink 2330

正在加载描述...

即将过境

Passes for default location (London). Set your location on the main map for personalized predictions.

高度历史

Loading altitude history...

两行轨道根数

1 47874U 21021Q 26123.85367450 .00049677 00000-0 15084-2 0 9991
2 47874 53.1456 319.9812 0001715 218.3829 141.7051 15.33619504285412
Epoch: May 3, 2026 • Age: 8 hours

当前状态

高度 472.1 km
速度 7.64 km/s
星下点 52.13°N, 99.95°E
发射日期 Mar 14, 2021
运行时间 5.1 years
类型 internet

技术详情

分类 Payload
质量 260.00 kg
干质量 248.00 kg
总质量 260.00 kg
长度 0.20 m
直径 2.80 m
跨度 9.00 m
形状 Box + pan
制造商 SPXS
平台类型 Starlink
阶段状态 In Orbit
所有者/国家 SPXS/US

Most Searched